H1 CPF 2 NER 2022 5 11 9 131 01 glonass132 H2 1401201 9132 39620 2022 5 11 0 0 0 2022 5 14 23 45 0 900 1 1 0 0 0 1 H9 10 0 59710 0.00000 0 -19003539.247 16708423.705 2985581.350 10 0 59710 900.00000 0 -18462109.374 16444066.033 6169256.770 10 0 59710 1800.00000 0 -17696698.480 15843699.209 9232712.875 10 0 59710 2700.00000 0 -16764308.017 14890857.605 12116309.142 10 0 59710 3600.00000 0 -15725791.176 13582189.443 14763960.881 10 0 59710 4500.00000 0 -14643170.501 11927823.608 17124234.870 10 0 59710 5400.00000 0 -13576928.002 9951175.630 19151348.621 10 0 59710 6300.00000 0 -12583383.090 7688201.396 20806053.982 10 0 59710 7200.00000 0 -11712269.175 5186130.597 22056388.462 10 0 59710 8100.00000 0 -11004610.622 2501733.533 22878280.856 10 0 59710 9000.00000 0 -10490988.369 -300805.897 23256000.874 10 0 59710 9900.00000 0 -10190265.624 -3152322.066 23182445.609 10 0 59710 10800.00000 0 -10108825.367 -5981303.486 22659258.999 10 0 59710 11700.00000 0 -10240349.735 -8716623.802 21696783.448 10 0 59710 12600.00000 0 -10566148.759 -11290255.634 20313845.760 10 0 59710 13500.00000 0 -11056023.136 -13639856.249 18537382.456 10 0 59710 14400.00000 0 -11669623.713 -15711119.620 16401912.192 10 0 59710 15300.00000 0 -12358249.982 -17459799.198 13948865.612 10 0 59710 16200.00000 0 -13067011.933 -18853319.472 11225785.383 10 0 59710 17100.00000 0 -13737264.681 -19871911.226 8285411.295 10 0 59710 18000.00000 0 -14309214.122 -20509224.886 5184667.480 10 0 59710 18900.00000 0 -14724584.806 -20772397.803 1983570.480 10 0 59710 19800.00000 0 -14929238.534 -20681573.648 -1255921.670 10 0 59710 20700.00000 0 -14875634.152 -20268894.563 -4471097.824 10 0 59710 21600.00000 0 -14525025.383 -19577008.480 -7599697.485 10 0 59710 22500.00000 0 -13849304.185 -18657153.949 -10581107.378 10 0 59710 23400.00000 0 -12832411.654 -17566902.364 -13357528.264 10 0 59710 24300.00000 0 -11471256.144 -16367651.651 -15875089.975 10 0 59710 25200.00000 0 -9776098.552 -15121975.923 -18084893.535 10 0 59710 26100.00000 0 -7770386.679 -13890941.627 -19943960.388 10 0 59710 27000.00000 0 -5490043.253 -12731502.373 -21416070.520 10 0 59710 27900.00000 0 -2982234.824 -11694081.389 -22472473.156 10 0 59710 28800.00000 0 -303670.387 -10820443.167 -23092455.909 10 0 59710 29700.00000 0 2481501.825 -10141943.906 -23263760.786 10 0 59710 30600.00000 0 5304113.995 -9678234.863 -22982838.179 10 0 59710 31500.00000 0 8092615.740 -9436474.041 -22254932.770 10 0 59710 32400.00000 0 10775820.034 -9411080.428 -21093998.472 10 0 59710 33300.00000 0 13285644.373 -9584042.291 -19522442.636 10 0 59710 34200.00000 0 15559733.019 -9925767.686 -17570703.155 10 0 59710 35100.00000 0 17543850.616 -10396442.129 -15276665.479 10 0 59710 36000.00000 0 19193946.576 -10947836.641 -12684929.913 10 0 59710 36900.00000 0 20477802.944 -11525489.766 -9845942.957 10 0 59710 37800.00000 0 21376195.970 -12071170.736 -6815009.547 10 0 59710 38700.00000 0 21883522.093 -12525518.472 -3651205.845 10 0 59710 39600.00000 0 22007861.864 -12830743.122 -416214.804 10 0 59710 40500.00000 0 21770479.518 -12933273.922 2826891.442 10 0 59710 41400.00000 0 21204780.240 -12786239.212 6014897.042 10 0 59710 42300.00000 0 20354770.527 -12351671.779 9085689.549 10 0 59710 43200.00000 0 19273088.452 -11602344.582 11979482.807 10 0 59710 44100.00000 0 18018688.971 -10523158.048 14639990.307 10 0 59710 45000.00000 0 16654283.890 -9112019.660 17015525.093 10 0 59710 45900.00000 0 15243646.180 -7380178.553 19060004.339 10 0 59710 46800.00000 0 13848893.413 -5352001.138 20733839.122 10 0 59710 47700.00000 0 12527865.319 -3064197.694 22004692.671 10 0 59710 48600.00000 0 11331705.630 -564532.864 22848093.477 10 0 59710 49500.00000 0 10302748.978 2089925.569 23247892.798 10 0 59710 50400.00000 0 9472800.172 4834946.187 23196559.277 10 0 59710 51300.00000 0 8861876.129 7601572.672 22695306.649 10 0 59710 52200.00000 0 8477461.070 10318760.858 21754053.554 10 0 59710 53100.00000 0 8314304.026 12916105.275 20391217.499 10 0 59710 54000.00000 0 8354765.121 15326543.327 18633347.887 10 0 59710 54900.00000 0 8569694.414 17488926.437 16514605.693 10 0 59710 55800.00000 0 8919805.205 19350353.088 14076100.027 10 0 59710 56700.00000 0 9357483.392 20868168.745 11365094.177 10 0 59710 57600.00000 0 9828956.656 22011551.292 8434095.944 10 0 59710 58500.00000 0 10276732.423 22762617.532 5339849.227 10 0 59710 59400.00000 0 10642202.530 23117005.994 2142245.473 10 0 59710 60300.00000 0 10868305.587 23083912.708 -1096824.843 10 0 59710 61200.00000 0 10902135.543 22685578.999 -4314659.307 10 0 59710 62100.00000 0 10697387.078 21956252.927 -7448947.088 10 0 59710 63000.00000 0 10216534.979 20940667.682 -10438966.420 10 0 59710 63900.00000 0 9432655.542 19692100.144 -13226753.381 10 0 59710 64800.00000 0 8330812.609 18270090.283 -15758219.986 10 0 59710 65700.00000 0 6908948.722 16737916.096 -17984200.361 10 0 59710 66600.00000 0 5178242.249 15159929.082 -19861404.948 10 0 59710 67500.00000 0 3162913.297 13598861.115 -21353264.468 10 0 59710 68400.00000 0 899483.999 12113214.950 -22430647.172 10 0 59710 69300.00000 0 -1564478.537 10754847.374 -23072435.169 10 0 59710 70200.00000 0 -4172086.807 9566846.192 -23265948.134 10 0 59710 71100.00000 0 -6859255.601 8581790.265 -23007205.331 10 0 59710 72000.00000 0 -9557136.363 7820466.118 -22301019.828 10 0 59710 72900.00000 0 -12194763.416 7291095.696 -21160921.822 10 0 59710 73800.00000 0 -14701802.865 6989108.542 -19608911.175 10 0 59710 74700.00000 0 -17011289.854 6897468.853 -17675042.654 10 0 59710 75600.00000 0 -19062239.884 6987544.310 -15396850.671 10 0 59710 76500.00000 0 -20802024.456 7220480.432 -12818623.760 10 0 59710 77400.00000 0 -22188410.680 7549022.439 -9990542.349 10 0 59710 78300.00000 0 -23191178.405 7919707.103 -6967696.517 10 0 59710 79200.00000 0 -23793246.085 8275330.799 -3809003.264 10 0 59710 80100.00000 0 -23991257.455 8557587.815 -576045.377 10 0 59710 81000.00000 0 -23795604.206 8709765.267 2668144.155 10 0 59710 81900.00000 0 -23229884.124 8679378.432 5860326.847 10 0 59710 82800.00000 0 -22329818.520 8420632.802 8938306.447 10 0 59710 83700.00000 0 -21141676.050 7896606.808 11842153.664 10 0 59710 84600.00000 0 -19720271.163 7081061.328 14515382.635 10 0 59710 85500.00000 0 -18126623.455 5959798.578 16906055.043 10 0 59711 0.00000 0 -16425378.424 4531512.583 18967789.763 10 0 59711 900.00000 0 -14682098.661 2808094.527 20660659.477 10 0 59711 1800.00000 0 -12960542.525 814382.439 21951954.661 10 0 59711 2700.00000 0 -11320041.727 -1412636.416 22816804.905 10 0 59711 3600.00000 0 -9813089.546 -3825134.672 23238644.083 10 0 59711 4500.00000 0 -8483238.659 -6366211.110 23209513.104 10 0 59711 5400.00000 0 -7363394.970 -8972040.131 22730195.852 10 0 59711 6300.00000 0 -6474576.605 -11574315.183 21810187.201 10 0 59711 7200.00000 0 -5825187.692 -14102885.010 20467495.008 10 0 59711 8100.00000 0 -5410834.878 -16488474.197 18728280.833 10 0 59711 9000.00000 0 -5214692.118 -18665376.259 16626346.895 10 0 59711 9900.00000 0 -5208396.671 -20574008.855 14202479.340 10 0 59711 10800.00000 0 -5353437.404 -22163226.573 11503660.327 10 0 59711 11700.00000 0 -5602976.310 -23392296.702 8582163.636 10 0 59711 12600.00000 0 -5904026.451 -24232457.172 5494550.642 10 0 59711 13500.00000 0 -6199894.764 -24667992.973 2300585.211 10 0 59711 14400.00000 0 -6432787.346 -24696787.072 -937912.415 10 0 59711 15300.00000 0 -6546468.012 -24330323.297 -4158251.362 10 0 59711 16200.00000 0 -6488858.585 -23593141.257 -7298073.419 10 0 59711 17100.00000 0 -6214471.693 -22521765.858 -10296551.372 10 0 59711 18000.00000 0 -5686573.558 -21163155.646 -13095559.743 10 0 59711 18900.00000 0 -4878985.303 -19572734.154 -15640795.856 10 0 59711 19800.00000 0 -3777446.014 -17812085.641 -17882829.981 10 0 59711 20700.00000 0 -2380478.868 -15946410.662 -19778064.431 10 0 59711 21600.00000 0 -699722.022 -14041846.925 -21289583.233 10 0 59711 22500.00000 0 1240291.976 -12162766.589 -22387875.861 10 0 59711 23400.00000 0 3402901.589 -10369162.439 -23051420.667 10 0 59711 24300.00000 0 5740597.216 -8714231.824 -23267116.225 10 0 59711 25200.00000 0 8196766.840 -7242259.303 -23030551.401 10 0 59711 26100.00000 0 10707835.812 -5986886.836 -22346107.853 10 0 59711 27000.00000 0 13205713.473 -4969844.358 -21226891.769 10 0 59711 27900.00000 0 15620445.938 -4200194.515 -19694494.740 10 0 59711 28800.00000 0 17882964.960 -3674123.942 -17778587.114 10 0 59711 29700.00000 0 19927818.210 -3375290.338 -15516350.471 10 0 59711 30600.00000 0 21695766.353 -3275711.060 -12951759.243 10 0 59711 31500.00000 0 23136137.205 -3337155.750 -10134724.936 10 0 59711 32400.00000 0 24208837.203 -3512983.679 -7120119.444 10 0 59711 33300.00000 0 24885934.539 -3750347.173 -3966696.876 10 0 59711 34200.00000 0 25152746.386 -3992666.467 -735935.837 10 0 59711 35100.00000 0 25008383.872 -4182269.313 2509173.962 10 0 59711 36000.00000 0 24465731.728 -4263081.466 5705375.509 10 0 59711 36900.00000 0 23550863.911 -4183251.901 8790392.634 10 0 59711 37800.00000 0 22301920.831 -3897599.581 11704156.471 10 0 59711 38700.00000 0 20767496.908 -3369776.436 14389984.913 10 0 59711 39600.00000 0 19004608.060 -2574053.869 16795690.889 10 0 59711 40500.00000 0 17076326.358 -1496656.499 18874597.395 10 0 59711 41400.00000 0 15049182.757 -136586.624 20586439.522 10 0 59711 42300.00000 0 12990448.062 1494095.163 21898136.433 10 0 59711 43200.00000 0 10965406.636 3370544.595 22784419.367 10 0 59711 44100.00000 0 9034736.775 5455951.552 23228304.905 10 0 59711 45000.00000 0 7252106.495 7702866.298 23221405.844 10 0 59711 45900.00000 0 5662083.624 10054978.428 22764075.412 10 0 59711 46800.00000 0 4298445.399 12449274.301 21865383.492 10 0 59711 47700.00000 0 3182955.793 14818483.350 20542926.663 10 0 59711 48600.00000 0 2324659.040 17093712.149 18822476.682 10 0 59711 49500.00000 0 1719716.390 19207157.689 16737474.739 10 0 59711 50400.00000 0 1351790.740 21094788.210 14328381.508 10 0 59711 51300.00000 0 1192961.179 22698881.464 11641895.311 10 0 59711 52200.00000 0 1205127.807 23970316.202 8730053.050 10 0 59711 53100.00000 0 1341847.058 24870522.700 5649230.625 10 0 59711 54000.00000 0 1550520.089 25373012.154 2459061.315 10 0 59711 54900.00000 0 1774842.247 25464421.944 -778707.857 10 0 59711 55800.00000 0 1957410.831 25145033.573 -4001400.463 10 0 59711 56700.00000 0 2042381.736 24428741.728 -7146613.660 10 0 59711 57600.00000 0 1978063.418 23342475.480 -10153417.310 10 0 59711 58500.00000 0 1719339.076 21925095.175 -12963526.614 10 0 59711 59400.00000 0 1229814.872 20225810.257 -15522426.135 10 0 59711 60300.00000 0 483603.135 18302183.025 -17780423.909 10 0 59711 61200.00000 0 -533335.475 16217800.585 -19693615.455 10 0 59711 62100.00000 0 -1822348.870 14039711.036 -21224739.197 10 0 59711 63000.00000 0 -3371786.898 11835729.803 -22343906.683 10 0 59711 63900.00000 0 -5157246.398 9671727.712 -23029193.142 10 0 59711 64800.00000 0 -7142360.294 7609013.285 -23267076.445 10 0 59711 65700.00000 0 -9280100.389 5701918.112 -23052715.170 10 0 59711 66600.00000 0 -11514541.836 3995686.105 -22390059.360 10 0 59711 67500.00000 0 -13783017.750 2524754.957 -21291790.586 10 0 59711 68400.00000 0 -16018575.595 1311502.055 -19779091.161 10 0 59711 69300.00000 0 -18152633.715 365507.855 -17881245.596 10 0 59711 70200.00000 0 -20117727.279 -316631.951 -15635080.836 10 0 59711 71100.00000 0 -21850228.521 -750937.354 -13084255.104 10 0 59711 72000.00000 0 -23292926.389 -965133.524 -10278408.628 10 0 59711 72900.00000 0 -24397356.244 -997237.746 -7272192.605 10 0 59711 73800.00000 0 -25125780.389 -893704.306 -4124195.629 10 0 59711 74700.00000 0 -25452734.751 -707207.126 -895789.436 10 0 59711 75600.00000 0 -25366075.587 -494155.734 2350082.253 10 0 59711 76500.00000 0 -24867481.455 -312051.864 5550146.625 10 0 59711 77400.00000 0 -23972389.213 -216800.818 8642050.309 10 0 59711 78300.00000 0 -22709367.206 -260093.664 11565587.535 10 0 59711 79200.00000 0 -21118953.011 -486972.976 14263882.512 10 0 59711 80100.00000 0 -19252006.050 -933686.629 16684501.817 10 0 59711 81000.00000 0 -17167645.864 -1625921.347 18780474.557 10 0 59711 81900.00000 0 -14930864.098 -2577491.045 20511200.459 10 0 59711 82800.00000 0 -12609911.606 -3789535.220 21843228.662 10 0 59711 83700.00000 0 -10273570.795 -5250260.751 22750893.169 10 0 59711 84600.00000 0 -7988427.380 -6935237.356 23216793.967 10 0 59711 85500.00000 0 -5816254.975 -8808233.650 23232116.084 10 0 59712 0.00000 0 -3811620.539 -10822558.072 22796782.127 10 0 59712 900.00000 0 -2019807.618 -12922849.495 21919436.577 10 0 59712 1800.00000 0 -475144.334 -15047239.977 20617264.134 10 0 59712 2700.00000 0 800200.336 -17129803.506 18915645.841 10 0 59712 3600.00000 0 1796901.690 -19103186.729 16847660.697 10 0 59712 4500.00000 0 2518620.824 -20901314.053 14453442.451 10 0 59712 5400.00000 0 2981598.636 -22462055.469 11779403.884 10 0 59712 6300.00000 0 3213721.076 -23729747.138 8877343.065 10 0 59712 7200.00000 0 3253096.026 -24657460.800 5803448.234 10 0 59712 8100.00000 0 3146202.306 -25208928.360 2617219.728 10 0 59712 9000.00000 0 2945688.852 -25360042.037 -619671.161 10 0 59712 9900.00000 0 2707916.543 -25099867.798 -3844565.073 10 0 59712 10800.00000 0 2490345.873 -24431129.771 -6995017.237 10 0 59712 11700.00000 0 2348880.081 -23370145.002 -10009997.362 10 0 59712 12600.00000 0 2335275.383 -21946210.580 -12831064.132 10 0 59712 13500.00000 0 2494727.280 -20200467.701 -15403492.155 10 0 59712 14400.00000 0 2863734.850 -18184288.863 -17677329.961 10 0 59712 15300.00000 0 3468333.563 -15957254.169 -19608368.858 10 0 59712 16200.00000 0 4322772.060 -13584799.743 -21159004.016 10 0 59712 17100.00000 0 5428690.150 -11135634.931 -22298971.110 10 0 59712 18000.00000 0 6774834.478 -8679034.818 -23005943.923 10 0 59712 18900.00000 0 8337326.176 -6282119.879 -23265980.896 10 0 59712 19800.00000 0 10080471.768 -4007235.410 -23073811.174 10 0 59712 20700.00000 0 11958085.814 -1909539.688 -22432953.602 10 0 59712 21600.00000 0 13915272.218 -34901.343 -21355665.147 10 0 59712 22500.00000 0 15890591.523 1581806.146 -19862718.416 10 0 59712 23400.00000 0 17818524.733 2917941.084 -17983011.224 10 0 59712 24300.00000 0 19632131.177 3963809.254 -15753014.545 10 0 59712 25200.00000 0 21265789.002 4722828.360 -13216068.564 10 0 59712 26100.00000 0 22657902.690 5211134.201 -10421539.898 10 0 59712 27000.00000 0 23753462.744 5456645.505 -7423856.217 10 0 59712 27900.00000 0 24506348.532 5497627.580 -4281437.335 10 0 59712 28800.00000 0 24881275.768 5380816.615 -1055544.521 10 0 59712 29700.00000 0 24855305.218 5159185.618 2190928.309 10 0 59712 30600.00000 0 24418847.935 4889448.503 5394696.422 10 0 59712 31500.00000 0 23576124.012 4629410.216 8493333.037 10 0 59712 32400.00000 0 22345055.476 4435277.333 11426499.050 10 0 59712 33300.00000 0 20756598.253 4359045.028 14137128.255 10 0 59712 34200.00000 0 18853542.287 4446072.675 16572543.748 10 0 59712 35100.00000 0 16688831.508 4732951.786 18685483.204 10 0 59712 36000.00000 0 14323475.434 5245756.981 20435012.994 10 0 59712 36900.00000 0 11824141.250 5998753.862 21787313.810 10 0 59712 37800.00000 0 9260527.945 6993617.838 22716323.527 10 0 59712 38700.00000 0 6702632.541 8219196.118 23204226.207 10 0 59712 39600.00000 0 4218022.323 9651821.978 23241779.297 10 0 59712 40500.00000 0 1869225.728 11256167.336 22828474.382 10 0 59712 41400.00000 0 -288650.986 12986597.335 21972529.924 10 0 59712 42300.00000 0 -2209984.127 14788969.875 20690717.452 10 0 59712 43200.00000 0 -3860286.711 16602804.999 19008025.606 10 0 59712 44100.00000 0 -5217390.134 18363733.889 16957169.087 10 0 59712 45000.00000 0 -6272106.655 20006125.957 14577952.299 10 0 59712 45900.00000 0 -7028347.504 21465785.321 11916499.787 10 0 59712 46800.00000 0 -7502693.733 22682605.197 9024367.909 10 0 59712 47700.00000 0 -7723439.328 23603070.367 5957554.251 10 0 59712 48600.00000 0 -7729147.803 24182504.179 2775423.137 10 0 59712 49500.00000 0 -7566783.465 24386966.818 -460432.943 10 0 59712 50400.00000 0 -7289496.012 24194725.897 -3687374.727 10 0 59712 51300.00000 0 -6954151.528 23597237.843 -6842918.431 10 0 59712 52200.00000 0 -6618713.438 22599598.653 -9865936.348 10 0 59712 53100.00000 0 -6339583.309 21220444.379 -12697833.141 10 0 59712 54000.00000 0 -6169013.211 19491304.384 -15283675.656 10 0 59712 54900.00000 0 -6152698.524 17455432.925 -17573254.821 10 0 59712 55800.00000 0 -6327652.772 15166166.314 -19522059.321 10 0 59712 56700.00000 0 -6720454.589 12684872.430 -21092142.375 10 0 59712 57600.00000 0 -7345941.657 10078576.411 -22252864.811 10 0 59712 58500.00000 0 -8206408.004 7417359.925 -22981499.747 10 0 59712 59400.00000 0 -9291340.336 4771640.996 -23263686.709 10 0 59712 60300.00000 0 -10577706.618 2209446.552 -23093725.635 10 0 59712 61200.00000 0 -12030787.084 -206209.317 -22474704.076 10 0 59712 62100.00000 0 -13605515.047 -2419732.566 -21418453.931 10 0 59712 63000.00000 0 -15248273.228 -4385041.571 -19945337.243 10 0 59712 63900.00000 0 -16899071.757 -6067257.011 -18083863.858 10 0 59712 64800.00000 0 -18494017.401 -7443918.366 -15870147.138 10 0 59712 65700.00000 0 -19967970.632 -8505675.726 -13347207.239 10 0 59712 66600.00000 0 -21257278.481 -9256427.682 -10564134.902 10 0 59712 67500.00000 0 -22302467.301 -9712899.633 -7575131.778 10 0 59712 68400.00000 0 -23050780.672 -9903680.812 -4438446.251 10 0 59712 69300.00000 0 -23458453.873 -9867761.543 -1215226.352 10 0 59712 70200.00000 0 -23492627.357 -9652634.031 2031686.670 10 0 59712 71100.00000 0 -23132817.073 -9312038.802 5238999.071 10 0 59712 72000.00000 0 -22371878.485 -8903454.263 8344213.596 10 0 59712 72900.00000 0 -21216423.088 -8485437.884 11286860.717 10 0 59712 73800.00000 0 -19686669.775 -8114933.670 14009686.617 10 0 59712 74700.00000 0 -17815737.820 -7844661.664 16459773.537 10 0 59712 75600.00000 0 -15648412.056 -7720701.246 18589570.068 10 0 59712 76500.00000 0 -13239433.140 -7780371.149 20357811.244 10 0 59712 77400.00000 0 -10651385.706 -8050495.844 21730310.909 10 0 59712 78300.00000 0 -7952273.635 -8546131.054 22680611.989 10 0 59712 79200.00000 0 -5212884.196 -9269801.288 23190483.351 10 0 59712 80100.00000 0 -2504051.010 -10211280.420 23250255.186 10 0 59712 81000.00000 0 106070.826 -11347923.416 22858988.066 10 0 59712 81900.00000 0 2554605.363 -12645534.342 22024473.973 10 0 59712 82800.00000 0 4786325.726 -14059733.472 20763070.626 10 0 59712 83700.00000 0 6755697.083 -15537765.921 19099373.328 10 0 59712 84600.00000 0 8428510.193 -17020676.098 17065731.303 10 0 59712 85500.00000 0 9783040.027 -18445757.370 14701618.153 10 0 59713 0.00000 0 10810683.648 -19749175.084 12052868.712 10 0 59713 900.00000 0 11516053.453 -20868654.759 9170795.127 10 0 59713 1800.00000 0 11916522.349 -21746122.224 6111202.278 10 0 59713 2700.00000 0 12041243.147 -22330188.455 2933315.949 10 0 59713 3600.00000 0 11929682.685 -22578374.016 -301352.866 10 0 59713 4500.00000 0 11629733.192 -22458981.118 -3530187.817 10 0 59713 5400.00000 0 11195480.210 -21952534.832 -6690668.960 10 0 59713 6300.00000 0 10684720.603 -21052732.741 -9721574.024 10 0 59713 7200.00000 0 10156334.722 -19766862.495 -12564156.450 10 0 59713 8100.00000 0 9667622.842 -18115668.620 -15163278.030 10 0 59713 9000.00000 0 9271717.702 -16132672.594 -17468474.658 10 0 59713 9900.00000 0 9015181.909 -13862972.849 -19434934.772 10 0 59713 10800.00000 0 8935891.563 -11361572.837 -21024371.771 10 0 59713 11700.00000 0 9061295.703 -8691304.860 -22205773.470 10 0 59713 12600.00000 0 9407125.785 -5920434.360 -22956013.805 10 0 59713 13500.00000 0 9976610.850 -3120042.673 -23260314.505 10 0 59713 14400.00000 0 10760233.066 -361295.770 -23112547.041 10 0 59713 15300.00000 0 11736035.871 2287288.343 -22515368.028 10 0 59713 16200.00000 0 12870473.751 4762460.440 -21480184.289 10 0 59713 17100.00000 0 14119769.850 7008640.285 -20026946.927 10 0 59713 18000.00000 0 15431725.903 8979995.926 -18183777.078 10 0 59713 18900.00000 0 16747909.536 10642115.049 -15986429.339 10 0 59713 19800.00000 0 18006127.419 11973198.080 -13477602.271 10 0 59713 20700.00000 0 19143080.055 12964722.639 -10706108.722 10 0 59713 21600.00000 0 20097085.612 13621551.412 -7725921.868 10 0 59713 22500.00000 0 20810756.715 13961479.106 -4595115.793 10 0 59713 23400.00000 0 21233515.622 14014238.226 -1374722.073 10 0 59713 24300.00000 0 21323839.853 13820006.846 1872474.176 10 0 59713 25200.00000 0 21051141.717 13427482.958 5083173.782 10 0 59713 26100.00000 0 20397200.939 12891608.823 8194812.604 10 0 59713 27000.00000 0 19357088.881 12271043.697 11146794.144 10 0 59713 27900.00000 0 17939544.803 11625494.030 13881680.211 10 0 59713 28800.00000 0 16166788.370 11013015.953 16346315.149 10 0 59713 29700.00000 0 14073776.674 10487405.663 18492861.094 10 0 59713 30600.00000 0 11706937.751 10095788.873 20279724.000 10 0 59713 31500.00000 0 9122434.627 9876511.469 21672352.740 10 0 59713 32400.00000 0 6384033.358 9857420.012 22643896.750 10 0 59713 33300.00000 0 3560664.649 10054603.710 23175710.738 10 0 59713 34200.00000 0 723780.995 10471649.617 23257698.201 10 0 59713 35100.00000 0 -2055381.042 11099440.949 22888488.766 10 0 59713 36000.00000 0 -4708520.494 11916505.627 22075447.494 10 0 59713 36900.00000 0 -7172861.971 12889899.198 20834517.321 10 0 59713 37800.00000 0 -9393510.303 13976584.228 19189898.739 10 0 59713 38700.00000 0 -11325474.333 15125247.896 17173573.558 10 0 59713 39600.00000 0 -12935278.011 16278481.520 14824682.249 10 0 59713 40500.00000 0 -14202094.249 17375231.065 12188766.802 10 0 59713 41400.00000 0 -15118356.530 18353416.535 9316893.274 10 0 59713 42300.00000 0 -15689824.633 19152611.282 6264670.399 10 0 59713 43200.00000 0 -15935103.305 19716669.707 3091182.405 10 0 59713 44100.00000 0 -15884635.069 19996193.938 -142144.258 10 0 59713 45000.00000 0 -15579209.969 19950736.472 -3372719.139 10 0 59713 45900.00000 0 -15068054.978 19550646.604 -6537989.063 10 0 59713 46800.00000 0 -14406583.125 18778482.925 -9576639.980 10 0 59713 47700.00000 0 -13653896.552 17629932.018 -12429776.716 10 0 59713 48600.00000 0 -12870147.975 16114193.712 -15042058.380 10 0 59713 49500.00000 0 -12113870.990 14253815.217 -17362767.904 10 0 59713 50400.00000 0 -11439391.119 12083979.225 -19346795.249 10 0 59713 51300.00000 0 -10894426.319 9651273.598 -20955515.439 10 0 59713 52200.00000 0 -10517977.988 7011991.720 -22157544.407 10 0 59713 53100.00000 0 -10338601.617 4230032.245 -22929357.738 10 0 59713 54000.00000 0 -10373130.678 1374483.619 -23255759.893 10 0 59713 54900.00000 0 -10625908.585 -1483007.865 -23130194.110 10 0 59713 55800.00000 0 -11088562.487 -4270978.271 -22554885.997 10 0 59713 56700.00000 0 -11740330.065 -6920881.447 -21540816.899 10 0 59713 57600.00000 0 -12548927.195 -9369706.334 -20107526.234 10 0 59713 58500.00000 0 -13471921.457 -11562367.085 -18282745.326 10 0 59713 59400.00000 0 -14458554.804 -13453766.098 -16101868.588 10 0 59713 60300.00000 0 -15451939.240 -15010443.321 -13607271.259 10 0 59713 61200.00000 0 -16391533.044 -16211742.247 -10847486.301 10 0 59713 62100.00000 0 -17215792.510 -17050443.352 -7876256.220 10 0 59713 63000.00000 0 -17864886.185 -17532838.314 -4751478.423 10 0 59713 63900.00000 0 -18283355.383 -17678242.119 -1534065.514 10 0 59713 64800.00000 0 -18422606.742 -17517964.497 1713256.160 10 0 59713 65700.00000 0 -18243129.582 -17093785.339 4927184.755 10 0 59713 66600.00000 0 -17716342.620 -16456000.208 8045092.064 10 0 59713 67500.00000 0 -16825990.615 -15661120.560 11006257.496 10 0 59713 68400.00000 0 -15569031.039 -14769327.989 13753061.337 10 0 59713 69300.00000 0 -13955972.920 -13841792.084 16232112.772 10 0 59713 70200.00000 0 -12010653.667 -12937966.892 18395290.024 10 0 59713 71100.00000 0 -9769463.614 -12112981.280 20200672.223 10 0 59713 72000.00000 0 -7280051.541 -11415233.838 21613345.178 10 0 59713 72900.00000 0 -4599566.082 -10884293.540 22606066.344 10 0 59713 73800.00000 0 -1792507.035 -10549193.828 23159777.357 10 0 59713 74700.00000 0 1071723.408 -10427190.594 23263955.700 10 0 59713 75600.00000 0 3921467.737 -10523034.679 22916800.356 10 0 59713 76500.00000 0 6685549.071 -10828787.705 22125249.416 10 0 59713 77400.00000 0 9295983.344 -11324187.318 20904830.676 10 0 59713 78300.00000 0 11690556.758 -11977545.091 19279349.166 10 0 59713 79200.00000 0 13815163.419 -12747138.412 17280418.345 10 0 59713 80100.00000 0 15625808.164 -13583037.355 14946844.316 10 0 59713 81000.00000 0 17090193.574 -14429289.774 12323874.903 10 0 59713 81900.00000 0 18188827.308 -15226373.172 9462327.673 10 0 59713 82800.00000 0 18915605.476 -15913810.979 6417613.174 10 0 59713 83700.00000 0 19277849.308 -16432844.079 3248671.463 10 0 59713 84600.00000 0 19295794.796 -16729046.109 16841.576 10 0 59713 85500.00000 0 19001557.321 -16754773.216 -3215315.006 99